Weather History for Al Udeid, Qatar

Change the Weather History Date:

Sunday, April 13, 2014

  Actual Average Record
Temperature  
Mean Temperature 86 °F -  
Max Temperature 102 °F - - ()
Min Temperature 71 °F - - ()
Cooling Degree Days 22    
Growing Degree Days 36 (Base 50)    
Moisture  
Dew Point 45 °F    
Average Humidity 28    
Maximum Humidity 60    
Minimum Humidity 11    
Precipitation  
Precipitation 0.00 in - - ()
Sea Level Pressure  
Sea Level Pressure 29.86 in    
Wind  
Wind Speed 9 mph ()    
Max Wind Speed 16 mph    
Max Gust Speed 18 mph    
Visibility 6.2 miles    
Events      
T = Trace of Precipitation, MM = Missing Value Source: Averaged Metar Reports

Daily Weather History Graph

Daily Weather History Graph

Search for Another Location

Airport:

Trip Planner

Search our weather history database for the weather conditions in past years. The results will help you decide how hot, cold, wet, or windy it might be!

Date:

Astronomy

Apr. 13, 2014 Rise Set
Actual Time 5:14 AM AST 5:56 PM AST
Civil Twilight 4:51 AM AST 6:19 PM AST
Nautical Twilight 4:23 AM AST 6:47 PM AST
Astronomical Twilight 3:56 AM AST 7:15 PM AST
Moon 4:20 PM AST (4/13) 3:48 AM AST (4/13)
Length of Visible Light 13h 28m
Length of Day
12h 41m
Waxing Gibbous, 96% of the Moon is Illuminated
Apr 13
Waxing Gibbous
Apr 15
Full
Apr 22
Last Quarter
Apr 29
New
May 7
First Quarter

Hourly Weather History & Observations

Time (AST) Temp. Dew Point Humidity Pressure Visibility Wind Dir Wind Speed Gust Speed Precip Events Conditions
12:58 AM 73.8 °F 58.3 °F 58% 29.88 in 6.2 mi NW 8.1 mph - N/A   Clear
1:58 AM 72.7 °F 56.8 °F 57% 29.86 in 6.2 mi NW 6.9 mph - N/A   Clear
2:58 AM 71.6 °F 56.3 °F 58% 29.85 in 6.2 mi NW 6.9 mph - N/A   Clear
3:58 AM 72.9 °F 54.5 °F 52% 29.86 in 6.2 mi NW 12.7 mph - N/A   Clear
4:58 AM 72.3 °F 57.0 °F 59% 29.87 in 6.2 mi NNW 10.4 mph - N/A   Clear
5:58 AM 72.3 °F 57.9 °F 60% 29.88 in 6.2 mi WNW 6.9 mph - N/A   Clear
6:58 AM 76.8 °F 56.3 °F 49% 29.88 in 6.2 mi NNW 9.2 mph - N/A   Clear
7:58 AM 83.8 °F 47.5 °F 28% 29.91 in 6.2 mi North 11.5 mph - N/A   Clear
8:58 AM 89.2 °F 40.8 °F 18% 29.91 in 6.2 mi North 16.1 mph - N/A   Clear
9:58 AM 93.6 °F 37.8 °F 14% 29.91 in 6.2 mi NNW 13.8 mph - N/A   Clear
10:58 AM 96.8 °F 38.8 °F 13% 29.90 in 6.2 mi North 12.7 mph - N/A   Clear
11:58 AM 99.3 °F 39.0 °F 12% 29.88 in 6.2 mi North 13.8 mph 18.4 mph N/A   Clear
12:58 PM 100.8 °F 37.9 °F 11% 29.85 in 6.2 mi NNW 11.5 mph - N/A   Clear
1:58 PM 102.2 °F 39.0 °F 11% 29.83 in 6.2 mi North 12.7 mph 18.4 mph N/A   Clear
2:58 PM 102.0 °F 42.3 °F 13% 29.81 in 6.2 mi NE 11.5 mph 17.3 mph N/A   Clear
3:58 PM 99.9 °F 41.4 °F 13% 29.81 in 6.2 mi NE 15.0 mph - N/A   Clear
4:58 PM 96.4 °F 43.0 °F 16% 29.82 in 6.2 mi NE 11.5 mph - N/A   Clear
5:58 PM 92.8 °F 45.7 °F 20% 29.83 in 6.2 mi NE 9.2 mph - N/A   Clear
6:58 PM 90.7 °F 37.6 °F 15% 29.86 in 6.2 mi NNE 6.9 mph - N/A   Clear
7:58 PM 88.3 °F 37.0 °F 16% 29.86 in 6.2 mi North 10.4 mph - N/A   Clear
8:58 PM 86.7 °F 36.0 °F 16% 29.86 in 6.2 mi NNE 6.9 mph - N/A   Clear
9:58 PM 85.6 °F 36.7 °F 18% 29.86 in 6.2 mi NNE 6.9 mph - N/A   Clear
10:58 PM 84.0 °F 38.1 °F 20% 29.86 in 6.2 mi NNE 5.8 mph - N/A   Clear
11:58 PM 82.2 °F 39.2 °F 22% 29.86 in 6.2 mi North 3.5 mph - N/A   Clear